Preview of NWS' New Version of Forecast
This preview is not operational and should not be used for support decisions.
Latest weather observations around

San Jose, San Jose International Airport (KSJC)

Using International System of Units (Switch to English Units)
Date/ Time (PDT) Wind (kph) Vis. (km) Weather Sky Cond. Temp (°C) Rel. Humidity Wind Chill (°C) Heat Index (°C) Pressure Precip. (cm)
Air Dwpt 6 hour Altimeter (hPa) Sea level (hPa) 1 hr 3 hr 6 hr
Max Min
May 20 00:06 Calm 16.09 Cloudy BKN025 OVC043 12 11     90%     1012.5        
May 19 23:53 ESE 5 16.09 Mostly Cloudy FEW005 SCT034 BKN050 12 11     93%     1012.5 1012.3      
May 19 22:53 Calm 16.09 Mostly Cloudy FEW006 SCT035 BKN050 12 11     96%     1012.2 1012.1     0
May 19 21:53 SE 5 16.09 Mostly Cloudy FEW006 SCT039 BKN055 12 10     89%     1011.9 1011.9 0    
May 19 20:53 E 8 16.09 Light Rain FEW007 SCT040 BKN055 12 10     86%     1011.9 1011.6 0    
May 19 19:53 Calm 16.09 Mostly Cloudy FEW008 SCT042 BKN060 13 9     80%     1010.8 1010.7 0 0  
May 19 18:53 W 9 14.48 Light Rain FEW001 BKN032 OVC080 13 9     80%     1010.5 1010.3 0    
May 19 17:53 NW 13 14.48 Rain FEW001 BKN032 OVC080 13 11     89%     1010.2 1010.1 0    
May 19 16:53 NW 15 16.09 Mostly Cloudy FEW001 BKN032 BKN050 16 9     64%     1009.5 1009.2     0
May 19 15:53 N 5 16.09 Mostly Cloudy FEW001 SCT032 BKN050 16 11     70%     1009.5 1009.3      
May 19 14:53 NE 11 16.09 Mostly Cloudy FEW001 BKN032 BKN050 15 12     81%     1009.8 1009.8 0    
May 19 14:16 9 16.09 Light Rain FEW001 BKN032 OVC080 13 11     84%     1010.2   0    
May 19 14:01 9 16.09 Light Rain FEW001 BKN032 BKN050 13 11     84%     1010.2   0    
May 19 13:53 ESE 11 16.09 Light Rain FEW001 BKN032 BKN050 13 10     80%     1009.8 1009.7 0 0  
May 19 12:53 Calm 16.09 Light Rain FEW001 BKN041 BKN060 14 11     81%     1009.8 1009.7 0    
May 19 11:53 ESE 13 16.09 Mostly Cloudy FEW001 SCT033 BKN070 13 11     84%     1009.5 1009.4 0    
May 19 11:38 SE 13 16.09 Mostly Cloudy FEW001 SCT033 BKN070 13 11     86%     1009.5   0    
May 19 10:53 N 11 9.66 Rain and Fog/Mist FEW001 BKN033 OVC050 12 9     86%     1009.2 1009.2 0   1
May 19 10:32 ENE 5 16.09 Light Rain FEW001 SCT027 BKN039 13 9     80%     1008.8   0    
May 19 09:53 SE 11 16.09 Mostly Cloudy FEW012 SCT033 BKN060 13 11     87%     1009.2 1008.9      
May 19 08:53 E 8 16.09 Cloudy FEW001 BKN050 OVC080 11 11     97%     1008.5 1008.5 0    
May 19 07:53 NW 5 8.05 Rain and Fog/Mist FEW001 BKN040 OVC060 11 9     92%     1008.1 1008 0 0  
May 19 06:53 SSE 9 16.09 Rain FEW001 SCT032 BKN060 11 10     93%     1007.1 1007.1 0    
May 19 06:22 SE 9 16.09 Mostly Cloudy FEW001 SCT032 BKN060 10 10     100%     1007.1        
May 19 05:53 SE 15 16.09 Mostly Cloudy FEW025 SCT032 BKN090 9 9     100% 7   1007.1 1007.1      
May 19 04:53 SE 9 16.09 Mostly Clear FEW039 9 9     100% 7   1007.5 1007.3     0
May 19 03:53 SSE 8 16.09 Clear CLR 11 11     100%     1007.8 1007.8      
May 19 02:53 SSE 5 16.09 Mostly Cloudy FEW021 SCT049 BKN065 12 11     96%     1007.8 1007.8 0    
May 19 02:18 SSE 9 16.09 Mostly Cloudy SCT026 SCT044 BKN075 11 11     100%     1007.8        
May 19 02:10 SE 8 16.09 Mostly Cloudy BKN026 BKN035 BKN075 11 11     100%     1007.8        
May 19 01:53 ESE 11 16.09 Mostly Cloudy BKN032 BKN043 BKN060 11 11     100%     1008.1 1008 0 0  
May 19 01:25   16.09 Light Rain SCT009 BKN034 OVC055 11 11     100%     1008.1   0    
May 19 01:18 SSE 17 16.09 Light Rain SCT009 BKN029 OVC037 11 11     100%     1008.1   0    
May 19 00:53 S 17 16.09 Light Rain SCT033 OVC055 12 11     96%     1008.1 1008.1 0    
May 18 23:53   16.09 Cloudy FEW006 BKN055 OVC110 12 11     96%     1008.1 1008.1 0    
May 18 22:53   16.09 Light Rain FEW008 BKN060 OVC110 12 11     96%     1008.1 1008.1 0   0
May 18 21:53 SE 17 16.09 Light Rain FEW006 BKN055 OVC110 12 12     97%     1008.5 1008.4 0    
May 18 20:53 SE 24 14.48 Light Rain FEW005 BKN035 OVC055 12 12     97%     1008.8 1008.8 0    
May 18 19:53   16.09 Cloudy FEW006 BKN050 OVC100 13 11     89%     1009.2 1008.9 0 0  
May 18 18:53   16.09 Light Rain FEW001 BKN050 OVC100 12 11     93%     1010.2 1010 0    
May 18 17:53 ESE 21 14.48 Cloudy FEW001 BKN050 OVC100 12 11     93%     1010.8 1010.6 0    
May 18 16:53 SE 15 9.66 Rain and Fog/Mist FEW001 BKN032 OVC100 12 11     96%     1012.5 1012.4 0   0
May 18 15:53 ESE 21 16.09 Light Rain FEW001 BKN032 OVC100 12 10     86%     1013.2 1013 0    
May 18 14:53 ESE 17 16.09 Light Rain FEW001 BKN032 OVC100 12 11     90%     1013.6 1013.4 0    
May 18 13:53 SE 13 12.87 Rain FEW001 BKN060 OVC100 12 10     86%     1013.9 1013.8 0 0  
May 18 12:53 E 13 16.09 Light Rain FEW001 BKN060 OVC100 13 9     77%     1014.2 1014.1 0    
May 18 11:53 SSW 18 16.09 Light Rain FEW025 SCT080 OVC180 14 7     60%     1013.6 1013.4 0    
May 18 10:53 SSW 17 16.09 Cloudy FEW025 SCT080 OVC180 16 8     60%     1013.2 1013.2      
May 18 09:53 SSE 17 16.09 Cloudy FEW030 FEW080 OVC180 15 8     62%     1013.6 1013.3      
May 18 08:53 SSE 18 16.09 Cloudy FEW030 FEW140 OVC180 13 8     72%     1013.9 1013.9      
May 18 07:53 Calm 16.09 Mostly Cloudy FEW030 BKN140 BKN180 11 8     83%     1014.6 1014.5      
May 18 06:53 SSE 11 16.09 Mostly Cloudy FEW030 BKN090 BKN160 9 8     93% 7   1014.6 1014.4      
May 18 05:53 SSE 5 16.09 Partly Cloudy FEW025 SCT080 SCT110 8 7     93% 8   1014.9 1014.7      
May 18 04:53 S 9 16.09 Partly Cloudy SCT021 9 7     89% 7   1015.6 1015.5      
May 18 03:53 SSE 8 16.09 Clear CLR 8 7     90% 7   1015.9 1015.8      
May 18 02:53 SW 5 16.09 Clear CLR 9 7     86% 9   1016.3 1016.1      
May 18 01:53 SSE 8 16.09 Partly Cloudy SCT023 9 7     86% 8   1016.9 1016.9      
May 18 01:05 S 5 16.09 Mostly Cloudy BKN023 11 7     79%     1018        
May 18 00:53 S 5 16.09 Mostly Clear FEW022 11 7     79%     1018 1018      
May 17 23:53 SW 5 16.09 Mostly Cloudy FEW012 BKN250 11 8     80%     1018.6 1018.4      
May 17 22:53 WNW 11 16.09 Mostly Cloudy FEW011 BKN250 12 8     80%     1019 1018.9      
May 17 21:53 NW 15 16.09 Mostly Cloudy FEW010 FEW120 BKN250 12 8     77%     1019.3 1019.1      
May 17 20:53 NW 15 16.09 Cloudy FEW012 SCT120 OVC250 13 7     69%     1019.7 1019.4      
May 17 19:53 NNW 18 16.09 Cloudy FEW014 SCT140 OVC250 14 8     67%     1019.7 1019.4      
May 17 18:53 NNW 21 16.09 Mostly Cloudy FEW035 BKN100 BKN160 16 7     57%     1019.3 1019.2      
May 17 17:53   16.09 Mostly Cloudy FEW016 SCT050 BKN100 17 7     53%     1019.7 1019.6      
May 17 16:53 NNW 24 16.09 Partly Cloudy FEW028 SCT036 SCT050 17 8     56%     1019.7 1019.6     0
May 17 15:53 N 17 16.09 Mostly Cloudy FEW028 SCT036 BKN050 18 9     54%     1019.7 1019.6      
May 17 14:53 NW 17 16.09 Mostly Cloudy FEW028 SCT036 BKN050 19 9     54%     1020.3 1020.2      
May 17 13:53 NNW 11 16.09 Mostly Cloudy FEW028 SCT036 BKN050 16 8     60%     1020.7 1020.6   0  
May 17 12:53 5 16.09 Mostly Cloudy FEW030 SCT035 BKN050 17 8     56%     1021 1020.8      
May 17 11:53 WNW 9 16.09 Mostly Cloudy FEW028 BKN035 BKN050 14 8     65%     1021 1021 0    
May 17 10:53 WNW 13 16.09 Mostly Cloudy FEW001 BKN030 BKN050 14 9     72%     1021 1020.8      
May 17 09:53 NE 5 16.09 Cloudy FEW001 BKN030 OVC060 12 9     83%     1021 1020.8      
May 17 08:53 11 14.48 Cloudy FEW001 BKN030 OVC060 12 9     86%     1020.7 1020.4      
May 17 07:53 SSW 5 16.09 Mostly Cloudy FEW001 SCT026 BKN035 12 8     74%     1020.3 1020.2      
May 17 06:53 SSW 5 16.09 Mostly Cloudy FEW001 SCT027 BKN055 12 8     80%     1020 1019.8      
May 17 05:53 SW 5 16.09 Mostly Cloudy FEW009 SCT028 BKN055 11 8     80%     1019.3 1019.1      
May 17 04:53 NNW 9 16.09 Cloudy BKN037 OVC050 11 8     80%     1019.3 1019      
May 17 03:53 W 5 16.09 Partly Cloudy SCT049 11 8     80%     1018.6 1018.5      
May 17 02:53 W 9 16.09 Mostly Clear FEW050 12 8     77%     1018 1017.9      
May 17 01:53 W 15 16.09 Cloudy OVC050 12 8     77%     1018.6 1018.5      
May 17 00:53 W 9 16.09 Cloudy SCT035 OVC045 12 8     77%     1018.6 1018.6      
May 15 09:53 Calm 16.09 Cloudy FEW021 BKN028 OVC035 16 8     62%     1017.6 1017.5      
May 14 23:53 WNW 18 16.09 Mostly Cloudy FEW010 SCT024 BKN045 13 9     77%     1016.3 1016.2      
May 14 15:53 WNW 21 16.09 Mostly Clear FEW025 FEW032 19 11     57%     1014.6 1014.4      
May 14 08:53 Calm 16.09 Cloudy FEW012 BKN019 OVC024 15 9     69%     1015.9 1015.9      
May 13 19:31 NW 22 16.09 Mostly Clear FEW008 17 10     63%     1014.9        
May 13 02:53 SE 18 16.09 Clear CLR 13 9     77%     1014.2 1014.2      
May 12 00:53 E 5 16.09 Clear CLR 17 9     60%     1009.5 1009.2      
Jun 11 20:53 WSW 21 16.09 Clear   14 7     62%     1015.2 1015.2      
Jun 10 18:53   16.09 Partly Cloudy FEW025 SCT037 SCT065 19 7     47%     1013.6 1013.5      
Jun 10 12:53   16.09 Partly Cloudy FEW015 SCT032 SCT050 21 8     45%     1015.2 1014.9      
Notice The following observation data may not be complete
Jun 10 03:34   16.09 Mostly Cloudy BKN023          %              
Jun 09 00:53 NW 8 16.09 Clear   18 16     90%     1014.6 1014.6      
Jun 08 16:53 ESE 13 16.09 Cloudy FEW009 BKN038 OVC075 21 14     66%     1015.6 1015.3     0
Jun 07 14:53   16.09 Mostly Cloudy FEW050 SCT090 BKN130 22 12     53%   21 1013.2 1013      
Jun 07 06:53 Calm 11.27 Mostly Cloudy FEW001 SCT007 BKN010 14 11     81%     1013.6 1013.3      
Jun 06 04:53 NW 8 14.48 Clear CLR 13 11     89%     1013.6 1013.3      
Jun 06 03:53 NNW 9 14.48 Clear CLR 13 11     87%     1013.2 1013.1      
Jun 05 20:53 W 15 16.09 Partly Cloudy FEW002 FEW065 SCT110 18 12     65%     1012.2 1011.9      
Jun 05 12:53 NW 17 16.09 Mostly Clear FEW035 FEW090 26 11     38%   26 1012.2 1012